Time,TemperatureF,DewpointF,PressureIn,WindDirection,WindDirectionDegrees,WindSpeedMPH,WindSpeedGustMPH,Humidity,HourlyPrecipIn,Conditions,Clouds,dailyrainin,SolarRadiationWatts/m^2,SoftwareType,DateUTC
2013-02-22 00:06:00,23.3,21.0,30.07,East,81,6.0,-999.0,91,-99.99,,,0.00,0,weatherlink.com 1.10,2013-02-22 05:06:00,
2013-02-22 00:21:00,23.2,21.0,30.07,NNE,27,9.0,-999.0,90,-99.99,,,0.00,0,weatherlink.com 1.10,2013-02-22 05:21:00,
2013-02-22 00:36:00,23.0,21.0,30.07,East,91,7.0,-999.0,90,-99.99,,,0.00,0,weatherlink.com 1.10,2013-02-22 05:36:00,
2013-02-22 00:51:00,22.8,20.0,30.05,ENE,76,13.0,-999.0,90,-99.99,,,0.00,0,weatherlink.com 1.10,2013-02-22 05:51:00,
2013-02-22 01:06:00,22.7,21.0,30.05,East,95,2.0,-999.0,91,-99.99,,,0.00,0,weatherlink.com 1.10,2013-02-22 06:06:00,
2013-02-22 01:21:00,22.7,21.0,30.03,ESE,106,2.0,-999.0,91,-99.99,,,0.00,0,weatherlink.com 1.10,2013-02-22 06:21:00,
2013-02-22 01:36:00,22.9,21.0,30.01,East,86,8.0,-999.0,91,-99.99,,,0.00,0,weatherlink.com 1.10,2013-02-22 06:36:00,
2013-02-22 01:51:00,23.1,21.0,30.01,East,87,10.0,-999.0,90,-99.99,,,0.00,0,weatherlink.com 1.10,2013-02-22 06:51:00,
2013-02-22 02:06:00,23.3,21.0,30.00,ENE,64,9.0,-999.0,89,-99.99,,,0.00,0,weatherlink.com 1.10,2013-02-22 07:06:00,
2013-02-22 02:22:00,23.3,21.0,29.98,East,87,10.0,-999.0,89,-99.99,,,0.00,0,weatherlink.com 1.10,2013-02-22 07:22:00,
2013-02-22 02:36:00,23.4,21.0,29.97,NNE,26,6.0,-999.0,90,-99.99,,,0.00,0,weatherlink.com 1.10,2013-02-22 07:36:00,
2013-02-22 02:51:00,23.4,21.0,29.97,ENE,62,9.0,-999.0,90,-99.99,,,0.00,0,weatherlink.com 1.10,2013-02-22 07:51:00,
2013-02-22 03:06:00,23.6,21.0,29.96,NE,46,9.0,-999.0,91,-99.99,,,0.00,0,weatherlink.com 1.10,2013-02-22 08:06:00,
2013-02-22 03:21:00,24.0,22.0,29.95,ESE,122,14.0,-999.0,92,-99.99,,,0.00,0,weatherlink.com 1.10,2013-02-22 08:21:00,
2013-02-22 03:36:00,23.9,22.0,29.94,ENE,59,3.0,-999.0,92,-99.99,,,0.00,0,weatherlink.com 1.10,2013-02-22 08:36:00,
2013-02-22 03:51:00,24.0,22.0,29.93,ENE,66,11.0,-999.0,92,-99.99,,,0.00,0,weatherlink.com 1.10,2013-02-22 08:51:00,
2013-02-22 04:07:00,23.9,22.0,29.93,East,85,8.0,-999.0,92,-99.99,,,0.00,0,weatherlink.com 1.10,2013-02-22 09:07:00,
2013-02-22 04:21:00,23.8,22.0,29.92,ENE,60,7.0,-999.0,92,-99.99,,,0.00,0,weatherlink.com 1.10,2013-02-22 09:21:00,
2013-02-22 04:36:00,23.9,22.0,29.92,ENE,75,3.0,-999.0,93,-99.99,,,0.00,0,weatherlink.com 1.10,2013-02-22 09:36:00,
2013-02-22 04:51:00,24.2,23.0,29.93,East,87,3.0,-999.0,93,-99.99,,,0.00,0,weatherlink.com 1.10,2013-02-22 09:51:00,
2013-02-22 05:06:00,24.3,23.0,29.92,ESE,122,8.0,-999.0,93,-99.99,,,0.00,0,weatherlink.com 1.10,2013-02-22 10:06:00,
2013-02-22 05:21:00,24.4,23.0,29.92,ENE,73,1.0,-999.0,93,-99.99,,,0.00,0,weatherlink.com 1.10,2013-02-22 10:21:00,
2013-02-22 05:36:00,24.6,23.0,29.92,East,79,8.0,-999.0,93,-99.99,,,0.00,0,weatherlink.com 1.10,2013-02-22 10:36:00,
2013-02-22 05:51:00,24.8,23.0,29.91,NE,56,2.0,-999.0,94,-99.99,,,0.00,0,weatherlink.com 1.10,2013-02-22 10:51:00,
2013-02-22 06:06:00,25.2,24.0,29.91,SE,127,2.0,-999.0,94,-99.99,,,0.00,0,weatherlink.com 1.10,2013-02-22 11:06:00,
2013-02-22 06:21:00,25.5,24.0,29.91,ESE,122,0.0,-999.0,94,-99.99,,,0.00,0,weatherlink.com 1.10,2013-02-22 11:21:00,
2013-02-22 06:36:00,25.7,24.0,29.91,ESE,108,7.0,-999.0,94,-99.99,,,0.00,0,weatherlink.com 1.10,2013-02-22 11:36:00,
2013-02-22 06:52:00,25.9,24.0,29.90,East,87,3.0,-999.0,94,-99.99,,,0.00,0,weatherlink.com 1.10,2013-02-22 11:52:00,
2013-02-22 07:06:00,26.0,25.0,29.90,ENE,74,5.0,-999.0,94,-99.99,,,0.00,0,weatherlink.com 1.10,2013-02-22 12:06:00,
2013-02-22 07:21:00,26.1,25.0,29.90,East,98,0.0,-999.0,94,-99.99,,,0.00,0,weatherlink.com 1.10,2013-02-22 12:21:00,
2013-02-22 07:36:00,26.3,25.0,29.90,NNE,33,4.0,-999.0,94,-99.99,,,0.00,0,weatherlink.com 1.10,2013-02-22 12:36:00,
2013-02-22 07:51:00,26.4,25.0,29.90,NE,43,3.0,-999.0,94,-99.99,,,0.00,5,weatherlink.com 1.10,2013-02-22 12:51:00,
2013-02-22 08:06:00,26.7,26.0,29.90,ESE,108,2.0,-999.0,95,-99.99,,,0.00,12,weatherlink.com 1.10,2013-02-22 13:06:00,
2013-02-22 08:21:00,27.0,26.0,29.90,East,81,2.0,-999.0,95,-99.99,,,0.00,19,weatherlink.com 1.10,2013-02-22 13:21:00,
2013-02-22 08:36:00,27.4,26.0,29.89,ESE,104,3.0,-999.0,95,-99.99,,,0.00,32,weatherlink.com 1.10,2013-02-22 13:36:00,
2013-02-22 08:52:00,27.8,27.0,29.89,ENE,78,5.0,-999.0,95,-99.99,,,0.00,44,weatherlink.com 1.10,2013-02-22 13:52:00,
2013-02-22 09:06:00,28.1,27.0,29.89,ENE,78,2.0,-999.0,95,-99.99,,,0.00,60,weatherlink.com 1.10,2013-02-22 14:06:00,
2013-02-22 09:21:00,28.4,27.0,29.89,SE,143,2.0,-999.0,95,-99.99,,,0.00,62,weatherlink.com 1.10,2013-02-22 14:21:00,
2013-02-22 09:36:00,28.7,28.0,29.89,ENE,74,2.0,-999.0,95,-99.99,,,0.00,65,weatherlink.com 1.10,2013-02-22 14:36:00,
2013-02-22 09:51:00,29.1,28.0,29.89,SE,127,2.0,-999.0,95,-99.99,,,0.00,76,weatherlink.com 1.10,2013-02-22 14:51:00,
2013-02-22 10:06:00,29.5,28.0,29.87,SE,131,3.0,-999.0,95,-99.99,,,0.00,100,weatherlink.com 1.10,2013-02-22 15:06:00,
2013-02-22 10:21:00,30.0,29.0,29.88,SE,124,0.0,-999.0,95,-99.99,,,0.00,107,weatherlink.com 1.10,2013-02-22 15:21:00,
2013-02-22 10:36:00,30.5,30.0,29.88,ESE,122,3.0,-999.0,96,-99.99,,,0.00,116,weatherlink.com 1.10,2013-02-22 15:36:00,
2013-02-22 10:52:00,30.8,30.0,29.88,SE,126,2.0,-999.0,96,-99.99,,,0.00,93,weatherlink.com 1.10,2013-02-22 15:52:00,
2013-02-22 11:06:00,31.2,30.0,29.89,SE,145,3.0,-999.0,96,-99.99,,,0.00,88,weatherlink.com 1.10,2013-02-22 16:06:00,
2013-02-22 11:22:00,31.7,31.0,29.89,SE,140,1.0,-999.0,96,-99.99,,,0.00,104,weatherlink.com 1.10,2013-02-22 16:22:00,
2013-02-22 11:36:00,32.2,31.0,29.88,SE,143,3.0,-999.0,96,-99.99,,,0.00,118,weatherlink.com 1.10,2013-02-22 16:36:00,
2013-02-22 11:51:00,32.6,32.0,29.89,SSE,154,3.0,-999.0,96,-99.99,,,0.00,137,weatherlink.com 1.10,2013-02-22 16:51:00,
2013-02-22 12:06:00,32.8,32.0,29.89,SSE,158,4.0,-999.0,96,-99.99,,,0.00,155,weatherlink.com 1.10,2013-02-22 17:06:00,
2013-02-22 12:21:00,33.0,32.0,29.88,SSE,156,4.0,-999.0,96,-99.99,,,0.01,142,weatherlink.com 1.10,2013-02-22 17:21:00,
2013-02-22 12:37:00,33.1,32.0,29.89,South,175,5.0,-999.0,96,-99.99,,,0.02,121,weatherlink.com 1.10,2013-02-22 17:37:00,
2013-02-22 12:51:00,33.5,33.0,29.88,South,173,7.0,-999.0,96,-99.99,,,0.03,167,weatherlink.com 1.10,2013-02-22 17:51:00,
2013-02-22 13:07:00,33.6,33.0,29.88,South,184,10.0,-999.0,96,-99.99,,,0.04,128,weatherlink.com 1.10,2013-02-22 18:07:00,
2013-02-22 13:22:00,33.8,33.0,29.89,SSW,203,8.0,-999.0,96,-99.99,,,0.05,98,weatherlink.com 1.10,2013-02-22 18:22:00,
2013-02-22 13:37:00,34.2,33.0,29.89,SSW,198,12.0,-999.0,96,-99.99,,,0.06,88,weatherlink.com 1.10,2013-02-22 18:37:00,
2013-02-22 13:52:00,34.2,34.0,29.88,SSW,196,5.0,-999.0,97,-99.99,,,0.06,83,weatherlink.com 1.10,2013-02-22 18:52:00,
2013-02-22 14:07:00,34.3,33.0,29.89,SW,235,14.0,-999.0,96,-99.99,,,0.07,97,weatherlink.com 1.10,2013-02-22 19:07:00,
2013-02-22 14:22:00,34.4,33.0,29.89,SW,220,15.0,-999.0,96,-99.99,,,0.07,67,weatherlink.com 1.10,2013-02-22 19:22:00,
2013-02-22 14:37:00,34.2,33.0,29.90,SSW,209,18.0,-999.0,96,-99.99,,,0.08,58,weatherlink.com 1.10,2013-02-22 19:37:00,
2013-02-22 14:52:00,34.1,33.0,29.90,SW,223,16.0,-999.0,96,-99.99,,,0.08,69,weatherlink.com 1.10,2013-02-22 19:52:00,
2013-02-22 15:07:00,34.1,33.0,29.89,SSW,201,10.0,-999.0,95,-99.99,,,0.08,86,weatherlink.com 1.10,2013-02-22 20:07:00,
2013-02-22 15:22:00,34.3,33.0,29.89,SW,217,11.0,-999.0,95,-99.99,,,0.09,95,weatherlink.com 1.10,2013-02-22 20:22:00,
2013-02-22 15:37:00,34.4,33.0,29.89,SSW,208,12.0,-999.0,94,-99.99,,,0.09,65,weatherlink.com 1.10,2013-02-22 20:37:00,
2013-02-22 15:52:00,34.4,33.0,29.89,SSW,200,9.0,-999.0,94,-99.99,,,0.09,130,weatherlink.com 1.10,2013-02-22 20:52:00,
2013-02-22 16:07:00,34.6,33.0,29.90,SW,214,17.0,-999.0,93,-99.99,,,0.09,67,weatherlink.com 1.10,2013-02-22 21:07:00,
2013-02-22 16:22:00,34.7,32.0,29.90,SSW,197,8.0,-999.0,91,-99.99,,,0.09,23,weatherlink.com 1.10,2013-02-22 21:22:00,
2013-02-22 16:37:00,34.6,33.0,29.90,SSW,213,5.0,-999.0,92,-99.99,,,0.10,16,weatherlink.com 1.10,2013-02-22 21:37:00,
2013-02-22 16:52:00,34.6,32.0,29.91,SW,223,7.0,-999.0,91,-99.99,,,0.10,47,weatherlink.com 1.10,2013-02-22 21:52:00,
2013-02-22 17:07:00,34.7,32.0,29.91,SSW,195,12.0,-999.0,91,-99.99,,,0.10,33,weatherlink.com 1.10,2013-02-22 22:07:00,
2013-02-22 17:22:00,34.8,32.0,29.91,SSW,204,11.0,-999.0,90,-99.99,,,0.10,21,weatherlink.com 1.10,2013-02-22 22:22:00,
2013-02-22 17:52:00,34.7,32.0,29.92,SSW,204,7.0,-999.0,90,-99.99,,,0.10,12,weatherlink.com 1.10,2013-02-22 22:52:00,
2013-02-22 18:07:00,34.7,32.0,29.92,SSW,204,7.0,-999.0,89,-99.99,,,0.10,5,weatherlink.com 1.10,2013-02-22 23:07:00,
2013-02-22 18:22:00,34.6,32.0,29.92,SW,228,7.0,-999.0,90,-99.99,,,0.10,0,weatherlink.com 1.10,2013-02-22 23:22:00,
2013-02-22 18:37:00,34.4,32.0,29.92,SW,216,9.0,-999.0,90,-99.99,,,0.10,0,weatherlink.com 1.10,2013-02-22 23:37:00,
2013-02-22 18:52:00,34.3,32.0,29.93,SSW,204,10.0,-999.0,91,-99.99,,,0.10,0,weatherlink.com 1.10,2013-02-22 23:52:00,
2013-02-22 19:07:00,34.1,32.0,29.93,SW,226,5.0,-999.0,91,-99.99,,,0.10,0,weatherlink.com 1.10,2013-02-23 00:07:00,
2013-02-22 19:22:00,33.9,32.0,29.93,SSW,209,6.0,-999.0,92,-99.99,,,0.10,0,weatherlink.com 1.10,2013-02-23 00:22:00,
2013-02-22 19:37:00,33.7,32.0,29.94,SSW,210,7.0,-999.0,92,-99.99,,,0.10,0,weatherlink.com 1.10,2013-02-23 00:37:00,
2013-02-22 19:52:00,33.7,32.0,29.93,SW,221,6.0,-999.0,93,-99.99,,,0.10,0,weatherlink.com 1.10,2013-02-23 00:52:00,
2013-02-22 20:07:00,33.3,32.0,29.94,West,266,7.0,-999.0,93,-99.99,,,0.10,0,weatherlink.com 1.10,2013-02-23 01:07:00,
2013-02-22 20:22:00,33.1,31.0,29.94,WSW,249,6.0,-999.0,93,-99.99,,,0.10,0,weatherlink.com 1.10,2013-02-23 01:22:00,
2013-02-22 20:37:00,32.6,31.0,29.94,WSW,258,5.0,-999.0,93,-99.99,,,0.10,0,weatherlink.com 1.10,2013-02-23 01:37:00,
2013-02-22 20:52:00,32.5,30.0,29.95,SW,223,8.0,-999.0,91,-99.99,,,0.10,0,weatherlink.com 1.10,2013-02-23 01:52:00,
2013-02-22 21:07:00,32.3,30.0,29.95,WSW,248,6.0,-999.0,91,-99.99,,,0.10,0,weatherlink.com 1.10,2013-02-23 02:07:00,
2013-02-22 21:22:00,32.1,30.0,29.95,West,268,9.0,-999.0,91,-99.99,,,0.10,0,weatherlink.com 1.10,2013-02-23 02:22:00,
2013-02-22 21:37:00,32.0,30.0,29.95,SW,222,3.0,-999.0,91,-99.99,,,0.10,0,weatherlink.com 1.10,2013-02-23 02:37:00,
2013-02-22 22:07:00,31.7,30.0,29.96,West,262,5.0,-999.0,92,-99.99,,,0.10,0,weatherlink.com 1.10,2013-02-23 03:07:00,
2013-02-22 22:22:00,31.4,29.0,29.96,WSW,255,8.0,-999.0,92,-99.99,,,0.10,0,weatherlink.com 1.10,2013-02-23 03:22:00,
2013-02-22 22:37:00,31.2,29.0,29.96,West,266,10.0,-999.0,90,-99.99,,,0.10,0,weatherlink.com 1.10,2013-02-23 03:37:00,
2013-02-22 22:52:00,31.1,28.0,29.96,WSW,244,6.0,-999.0,88,-99.99,,,0.10,0,weatherlink.com 1.10,2013-02-23 03:52:00,
2013-02-22 23:07:00,31.0,28.0,29.96,WSW,241,4.0,-999.0,88,-99.99,,,0.10,0,weatherlink.com 1.10,2013-02-23 04:07:00,
2013-02-22 23:22:00,30.8,28.0,29.96,WSW,254,5.0,-999.0,88,-99.99,,,0.10,0,weatherlink.com 1.10,2013-02-23 04:22:00,
2013-02-22 23:37:00,30.8,27.0,29.96,West,275,7.0,-999.0,85,-99.99,,,0.10,0,weatherlink.com 1.10,2013-02-23 04:37:00,
2013-02-22 23:52:00,30.6,27.0,29.96,WSW,240,6.0,-999.0,85,-99.99,,,0.10,0,weatherlink.com 1.10,2013-02-23 04:52:00,